{"data":{"norad_id":47397,"intl_designator":"2021-005BA","name":"STARLINK-2119","alt_names":[],"object_type":"PAYLOAD","status":"ACTIVE","operator":null,"country":"US","launch_date":"2021-01-20","launch_site_code":"AFETR","launch_vehicle":null,"mission":null,"orbit_class":"UNKNOWN","rcs_meters":null,"size_class":null,"mass_kg":null,"dimensions":null,"purposes":["comms"],"wikipedia_slug":null,"has_3d_model":false,"image_url":null,"decayed_at":null,"tle_current":{"epoch":"2026-09-20T03:34:18.556896Z","epoch_age_seconds":56031,"freshness":"FRESH","line1":"1 47397U 21005BA  26263.14882589  .00041490  00000+0  95824-3 0  9990","line2":"2 47397  53.1536 232.9266 0001489  24.3374 335.7702 15.42143598312892","mean_motion":15.42143598,"eccentricity":0.0001489,"inclination_deg":53.1536,"raan_deg":232.9266,"arg_perigee_deg":24.3374,"mean_anomaly_deg":335.7702,"bstar":0.00095824,"rev_number":31289,"period_min":93.376518364926,"perigee_km":438.76880773195,"apogee_km":440.79918460461,"semimajor_km":6817.9209961683,"source":"CELESTRAK","updated_at":"2026-09-20T09:00:38.594931Z"}}}